Regional Weather Roundup
Issued by NWS

Home | Current Version | Previous Version | Text Only | Print | Product List | Glossary Off
Versions: 1 2 3 4 5 6 7 8 9 10 11 12 13 14 15 16 17 18 19 20 21 22 23 24 25 26 27 28 29 30 31 32 33 34 35 36 37 38 39 40 41 42 43 44 45 46 47 48 49 50

000
ASUS43 KLOT 250703
RWRIL

ILLINOIS REGIONAL WEATHER ROUNDUP
NATIONAL WEATHER SERVICE CHICAGO/ROMEOVILLE IL
200 AM CDT TUE APR 25 2017

NOTE: "FAIR" INDICATES FEW OR NO CLOUDS BELOW 12,000 FEET WITH NO
SIGNIFICANT WEATHER AND/OR OBSTRUCTIONS TO VISIBILITY.

* THESE STATIONS ARE NOT UNDER NWS QUALITY CONTROL. THEY ALSO MAY NOT
  REPORT WEATHER SUCH AS PRECIPITATION OR FOG.

ILZ001-002-007-009-015-016-024-250800-
NORTHWEST ILLINOIS

CITY           SKY/WX    TMP DP  RH WIND       PRES   REMARKS
MOLINE         CLOUDY    53  33  46 SE7       29.66F
STERLING*      CLEAR     54  37  52 E7        29.70F
SAVANNA*       CLEAR     55  34  45 S6        29.68F
$$

ILZ003-004-008-010-011-017-018-250800-
NORTH CENTRAL ILLINOIS

CITY           SKY/WX    TMP DP  RH WIND       PRES   REMARKS
ROCKFORD       CLOUDY    57  36  45 SE9       29.73S
FREEPORT*      PTCLDY    50  37  59 SE6       29.72F
ROCHELLE*      PTCLDY    53  38  55 SE7       29.72S
DE KALB*       CLOUDY    55  38  53 SE9       29.73S
PERU*          CLEAR     54  36  50 SE9       29.72F
$$

ILZ005-006-012>014-019>023-250800-
NORTHEAST ILLINOIS

CITY           SKY/WX    TMP DP  RH WIND       PRES   REMARKS
CHICAGO-OHARE  PTCLDY    56  39  53 SE10      29.73F
CHICAGO-MIDWAY CLEAR     60  41  49 SE10      29.74F
AURORA         CLOUDY    53  39  59 SE6       29.73S
LANSING*       CLEAR     56  43  63 SE10      29.74F
JOLIET*        CLEAR     58  42  55 SE7       29.73S
WAUKEGAN       CLOUDY    52  38  58 SE9       29.75S
DUPAGE AIRPORT CLEAR     57  41  55 SE8       29.72F
KANKAKEE*      CLEAR     55  42  62 SE9       29.74F
WHEELING       CLEAR     57  39  51 SE5       29.75S
MORRIS*        CLEAR     57  40  53 SE5       29.71F
NORTHERLY ISL    N/A     52  45  77 E3          N/A
$$

LMZ740>746-250800-
SOUTHERN LAKE MICHIGAN

STATION/POSITION SKY/WX   TEMP    WIND        PRES    VSBY  WAVE
                          AIR SEA DIR/SP/G                  HT/PER
                          (F)     (DEG/KT/KT) (MB)    (MI)  (FT/S)
SOUTHERN BUOY              48 41  100/  8/ 10 1009.0          1
HARRISON CRIB              53     150/  6/  7   N/A
BURNHAM HARBOR             52      CALM  /  5   N/A
CALUMET HARBOR             60     120/ 10/ 15 1007.0F
BURNS HARBOR               59     130/ 11/ 18 1008.1S
MICHIGAN CITY              58     130/ 11/ 14   N/A
ST. JOSEPH                 56 50  140/ 12/ 14 1008.8F         1
$$

ILZ025>027-034>036-040-047-049-050-058-095>099-250800-
WEST-CENTRAL ILLINOIS

CITY           SKY/WX    TMP DP  RH WIND       PRES   REMARKS
QUINCY         PTCLDY    54  38  54 SE7       29.66F
GALESBURG*     CLEAR     55  32  41 SE6       29.67F
MACOMB*        CLEAR     52  33  48 CALM      29.70S
JACKSONVILLE*  CLEAR     60  36  41 S7        29.70S
PITTSFIELD*    CLOUDY    58  40  52 S6        29.70R
$$

ILZ028>032-037-038-041>044-048-051>054-059>061-250800-
CENTRAL ILLINOIS

CITY           SKY/WX    TMP DP  RH WIND       PRES   REMARKS
PONTIAC        CLEAR     51  40  65 SE7       29.73S
BLOOMINGTON    CLEAR     54  37  52 S7        29.73S
DECATUR        CLEAR     49  37  63 CALM      29.72F
PEORIA         CLEAR     58  32  37 S6        29.70F
LACON*         CLEAR     51  35  55 CALM      29.70S
LINCOLN*       CLEAR     46  36  68 CALM      29.71F
SPRINGFIELD    CLEAR     56  37  49 S8        29.70F
TAYLORVILLE    CLEAR     51  37  60 S6        29.71F
$$

ILZ033-039-045-046-055>057-062-063-250800-
EAST-CENTRAL ILLINOIS

CITY           SKY/WX    TMP DP  RH WIND       PRES   REMARKS
CHAMPAIGN      CLEAR     50  38  63 E9        29.73S
RANTOUL*       CLEAR     56  42  59 E5        29.73F
MATTOON        CLEAR     51  43  74 S5        29.72F
PARIS*         CLEAR     55  48  78 SE7       29.75F
$$

ILZ079-100>102-250800-
SOUTHWEST ILLINOIS

CITY           SKY/WX    TMP DP  RH WIND       PRES   REMARKS
ALTON          CLEAR     53  40  59 S5        29.71F
BELLEVILLE     CLEAR     51  47  86 CALM      29.70F
CAHOKIA*       CLEAR     52  42  69 CALM      29.70F
SPARTA*        CLEAR     57  46  65 CALM      29.73S
$$

ILZ064>066-069>071-074>076-080>082-084>086-088>090-092>094-250800-
SOUTH-CENTRAL ILLINOIS

CITY           SKY/WX    TMP DP  RH WIND       PRES   REMARKS
CARBONDALE     CLEAR     51  50  96 CALM      29.73F
CAIRO*         CLEAR     59  55  88 S7        29.75S
EFFINGHAM*     CLEAR     48  45  90 CALM      29.75S
MARION         CLEAR     57  55  94 CALM      29.74F
MT. VERNON     CLEAR     46  45  96 CALM      29.73F
CENTRALIA*     CLEAR     56  47  72 S6        29.72F
SALEM*         CLEAR     55  45  67 S3        29.73S
METROPOLIS*    CLEAR     59  55  88 S6        29.76S
$$

ILZ067-068-072-073-078-083-087-091-250800-
SOUTHEAST ILLINOIS

CITY           SKY/WX    TMP DP  RH WIND       PRES   REMARKS
LAWRENCEVILLE  CLEAR     56  51  84 S8        29.75R
FLORA*         CLEAR     51  47  84 CALM      29.74S
FAIRFIELD*     CLEAR     51  49  93 CALM      29.73S
HARRISBURG*    CLEAR     51  50  94 CALM      29.74F
ROBINSON*      CLEAR     53  48  85 S3        29.75F
CARMI*         CLEAR     53  50  90 CALM      29.74S
$$

ABBREVIATIONS USED IN REMARKS
   TC - TEMPERATURE IN CELSIUS
  WCI - WIND CHILL INDEX
   HX - HEAT INDEX
  VSB - VISIBILITY
$$




USA.gov is the U.S. government's official web portal to all federal, state and local government web resources and services.